• Join FlightAware (Why Join?)
  • Login
  • US Flag GB Flag 
02:50 EST


 

Airport Tracker/Info


-or-


 

Live Flight TrackerFlight Track Log ✈ SWA2353 ✈ 12-May-2013 ✈ KPHL - KMDW

Flight Track Log - Related Links

Times and Time Zones

All times are in EDT time to prevent confusion due to time zone crossing. See the SWA2353 flight status page for this flight to view local times or setup timezone preferences in your user account.

Time Position Orientation Groundspeed Altitude Reporting Facility
EDT Latitude Longitude Course Direction KTS MPH feet Rate Location/Type
18:43 39.8667 -75.2667 237° Southwest 146 168 800  Level Philadelphia TRACON
18:43 39.8500 -75.3000 237° Southwest 146 168 1,600 3,000 Climbing Philadelphia TRACON
18:44 39.8500 -75.3500 270° West 215 247 4,700 3,455 Climbing Philadelphia TRACON
18:46 39.9167 -75.4000 330° Northwest 262 302 9,200 2,976 Climbing Philadelphia TRACON
18:46 39.9833 -75.4333 339° North 287 330 11,000 2,094 Climbing Philadelphia TRACON
18:47 40.0508 -75.4758 334° Northwest 352 405 12,900 1,043 Climbing New York Center
18:48 40.1408 -75.5200 339° North 359 413 13,000 1,119 Climbing New York Center
18:49 40.2303 -75.5750 335° Northwest 359 413 15,100 1,983 Climbing New York Center
18:50 40.2953 -75.6692 312° West 346 398 17,000 958 Climbing New York Center
18:51 40.3522 -75.7550 311° West 346 398 17,000  Level New York Center
18:52 40.4167 -75.8525 311° West 346 398 17,000 49 Level New York Center
18:53 40.4514 -75.9642 292° West 336 387 17,100 857 Climbing New York Center
18:54 40.4711 -76.0856 282° West 323 372 18,700 2,136 Climbing New York Center
18:55 40.4889 -76.1961 282° West 333 383 21,300 2,700 Climbing New York Center
18:56 40.5061 -76.3203 280° West 338 389 24,100 2,529 Climbing New York Center
18:57 40.5272 -76.4478 282° West 343 395 26,400 2,164 Climbing New York Center
18:58 40.5481 -76.5750 282° West 350 403 28,500 2,118 Climbing New York Center
18:59 40.5792 -76.7033 288° West 363 418 30,600 1,881 Climbing New York Center
19:00 40.6142 -76.8350 289° West 373 429 32,200 1,488 Climbing New York Center
19:01 40.6489 -76.9694 289° West 373 429 33,600 893 Climbing New York Center
19:02 40.6836 -77.1039 289° West 379 436 34,000 198 Climbing New York Center
19:03 40.7203 -77.2361 290° West 384 442 34,000  Level New York Center
19:04 40.7600 -77.3822 290° West 384 442 34,000  Level New York Center
19:06 40.8142 -77.5981 288° West 408 470 34,000  Level Cleveland Center
19:07 40.8489 -77.7339 289° West 403 464 34,000  Level Cleveland Center
19:08 40.8833 -77.8697 289° West 398 458 34,000  Level Cleveland Center
19:09 40.9181 -78.0111 288° West 398 458 34,000  Level Cleveland Center
19:10 40.9356 -78.1533 279° West 393 452 34,000  Level Cleveland Center
19:11 40.9575 -78.3067 281° West 393 452 34,000  Level Cleveland Center
19:12 40.9728 -78.4489 278° West 388 447 34,000  Level Cleveland Center
19:13 40.9900 -78.5914 279° West 388 447 34,000  Level Cleveland Center
19:14 41.0092 -78.7339 280° West 388 447 34,000  Level Cleveland Center
19:15 41.0239 -78.8767 278° West 388 447 34,000  Level Cleveland Center
19:16 41.0425 -79.0250 279° West 399 459 34,000  Level Cleveland Center
19:17 41.0569 -79.1706 278° West 399 459 34,000  Level Cleveland Center
19:18 41.0753 -79.3161 280° West 404 465 34,000  Level Cleveland Center
19:19 41.0894 -79.4592 278° West 404 465 34,000  Level Cleveland Center
19:20 41.1053 -79.6022 278° West 404 465 34,000  Level Cleveland Center
19:21 41.1189 -79.7314 278° West 404 465 34,000  Level Cleveland Center
19:22 41.1344 -79.8747 278° West 404 465 34,000  Level Cleveland Center
19:23 41.1519 -80.0150 279° West 404 465 34,000  Level Cleveland Center
19:24 41.1650 -80.1556 277° West 399 459 34,000  Level Cleveland Center
19:25 41.1822 -80.2989 279° West 399 459 34,000  Level Cleveland Center
19:26 41.1950 -80.4617 276° West 399 459 34,000  Level Cleveland Center
19:27 41.2094 -80.6053 278° West 399 459 34,000  Level Cleveland Center
19:28 41.2261 -80.7486 279° West 399 459 34,000  Level Cleveland Center
19:29 41.2383 -80.8925 276° West 404 465 34,000  Level Cleveland Center
19:30 41.2544 -81.0389 278° West 404 465 34,000  Level Cleveland Center
19:31 41.2664 -81.1853 276° West 403 464 34,000 -450 Level Cleveland Center
19:32 41.2803 -81.3097 278° West 398 458 33,100 -950 Descending Cleveland Center
19:33 41.2939 -81.4508 277° West 389 448 32,100 -550 Descending Cleveland Center
19:34 41.3072 -81.5864 278° West 389 448 32,000 -50 Descending Cleveland Center
19:35 41.3206 -81.7250 277° West 389 448 32,000  Level Cleveland Center
19:36 41.3336 -81.8636 277° West 389 448 32,000  Level Cleveland Center
19:37 41.3425 -82.0019 275° West 389 448 32,000  Level Cleveland Center
19:38 41.3569 -82.1600 277° West 395 455 32,000  Level Cleveland Center
19:39 41.3656 -82.2986 275° West 395 455 32,000  Level Cleveland Center
19:40 41.3719 -82.4258 274° West 390 449 32,000  Level Cleveland Center
19:41 41.3800 -82.5644 274° West 390 449 32,000  Level Cleveland Center
19:42 41.3878 -82.7086 274° West 390 449 32,000  Level Cleveland Center
19:43 41.3956 -82.8447 274° West 385 443 32,000  Level Cleveland Center
19:44 41.4031 -82.9861 274° West 385 443 32,000  Level Cleveland Center
19:45 41.4106 -83.1247 274° West 385 443 32,000  Level Cleveland Center
19:46 41.4175 -83.2803 273° West 385 443 32,000  Level Cleveland Center
19:47 41.4244 -83.4161 274° West 385 443 32,000  Level Cleveland Center
19:48 41.4292 -83.5578 273° West 385 443 32,000  Level Cleveland Center
19:49 41.4381 -83.6967 275° West 385 443 32,000  Level Cleveland Center
19:50 41.4447 -83.8381 274° West 385 443 32,000  Level Cleveland Center
19:51 41.4508 -83.9797 273° West 385 443 32,000  Level Cleveland Center
19:53 41.4661 -84.2825 274° West 385 443 32,000  Level Chicago Center
19:54 41.4719 -84.4217 273° West 381 438 32,000 -387 Level Chicago Center
19:55 41.4778 -84.5897 273° West 378 435 31,200 -968 Descending Chicago Center
19:56 41.4833 -84.7283 273° West 377 434 30,000 -581 Descending Chicago Center
19:58 41.4892 -84.8656 273° West 373 429 30,000  Level Chicago Center
19:59 41.4942 -85.0042 273° West 372 428 30,000 -97 Level Chicago Center
20:00 41.4983 -85.1431 272° West 374 430 29,800 -1,306 Descending Chicago Center
20:01 41.5028 -85.2803 273° West 369 425 27,300 -2,371 Descending Chicago Center
20:02 41.5072 -85.4139 273° West 358 412 24,900 -1,790 Descending Chicago Center
20:03 41.5106 -85.5442 272° West 348 400 23,600 -1,210 Descending Chicago Center
20:04 41.5156 -85.7000 273° West 348 400 22,400 -1,258 Descending Chicago Center
20:05 41.5189 -85.8256 272° West 339 390 21,000 -1,694 Descending Chicago Center
20:06 41.5225 -85.9458 272° West 326 375 18,900 -1,935 Descending Chicago Center
20:07 41.5244 -86.0625 271° West 317 365 17,000 -1,984 Descending Chicago Center
20:08 41.5231 -86.1761 269° West 310 357 14,800 -2,032 Descending Chicago Center
20:09 41.5228 -86.2900 270° West 307 353 12,800 -1,935 Descending Chicago Center
20:10 41.5225 -86.4211 270° West 296 341 10,800 -1,296 Descending Chicago Center
20:11 41.5214 -86.5300 269° West 294 338 10,100 -336 Descending Chicago Center
20:12 41.5211 -86.6414 270° West 299 344 10,100  Level Chicago Center
20:13 41.5194 -86.7439 269° West 294 338 10,100 -581 Level Chicago Center
20:14 41.5161 -86.8700 268° West 283 326 8,900 -1,161 Descending Chicago Center
20:15 41.5233 -86.9647 276° West 257 296 7,700 -1,306 Descending Chicago Center
20:16 41.5367 -87.0536 281° West 248 285 6,200 -872 Descending Chicago Center
20:17 41.5500 -87.1333 283° West 244 281 6,000 -99 Descending Chicago TRACON
20:18 41.5667 -87.2333 283° West 247 284 6,000 -350 Level Chicago TRACON
20:19 41.5667 -87.3167 270° West 250 288 5,300 -1,111 Descending Chicago TRACON
20:20 41.5833 -87.4000 285° West 247 284 4,000 -1,068 Descending Chicago TRACON
20:20 41.5881 -87.4278 283° West 247 284 4,000  Level Chicago Center
20:21 41.5992 -87.5158 280° West 244 281 4,000  Level Chicago Center
20:22 41.6114 -87.6053 280° West 245 282 4,000 -48 Level Chicago Center
20:23 41.6225 -87.6936 280° West 245 282 3,900 -196 Descending Chicago Center
20:24 41.6333 -87.7333 290° West 214 246 3,700 -625 Descending Chicago TRACON
20:25 41.6833 -87.8000 315° West 195 224 2,900 -650 Descending Chicago TRACON
20:26 41.7167 -87.8333 323° Northwest 169 194 2,400 -632 Descending Chicago TRACON
20:27 41.7333 -87.8000 56° Northeast 135 155 1,700 -750 Descending Chicago TRACON
20:28 41.7667 -87.7667 37° Northeast 132 152 900 -800 Descending Chicago TRACON